Wind_Speed
25 25 25 25 25 26 27 27 27 27 27 26 26 26 26 26 26 25 24 24 23 24 23 24 24 24 25 25 26 26 27 27 27 26 26 27 26 26 25 26 25 25 25
24 24 25 25 25 26 26 27 26 26 26 26 25 25 26 25 25 24 24 24 24 24 24 23 24 24 24 24 25 25 26 26 26 26 26 26 26 25 25 26 25 24 24
24 24 25 26 26 26 26 26 25 25 25 25 25 25 25 24 24 24 24 23 24 23 23 23 23 23 23 24 24 23 24 24 24 25 25 25 25 25 25 25 24 24 23
24 24 25 25 25 25 25 25 24 23 23 23 23 23 23 23 23 23 23 22 22 23 23 22 22 21 22 23 22 22 23 23 23 24 24 24 25 25 25 24 23 23 22
23 24 23 23 23 23 23 24 23 23 22 22 21 21 21 22 22 21 21 21 21 21 21 22 21 21 22 23 23 23 22 22 23 23 23 23 23 23 23 22 22 21 20
22 23 23 23 23 23 23 23 22 22 21 21 21 21 21 21 20 20 20 20 20 20 20 20 20 21 22 22 22 22 22 22 21 21 21 21 22 22 22 22 21 20 19
21 22 21 21 22 22 22 21 21 20 20 20 21 21 20 20 19 19 19 18 18 18 18 18 19 19 18 19 19 19 19 19 19 19 19 20 20 20 20 20 20 19 18
19 19 19 19 19 20 19 19 20 20 20 20 19 19 19 19 18 18 18 17 17 17 17 17 17 17 17 17 17 17 17 17 17 17 17 18 18 18 18 17 17 17 16
18 17 17 18 17 17 18 18 18 18 18 18 18 17 17 16 16 16 16 16 16 15 15 15 15 16 15 15 16 16 16 16 16 16 16 16 16 15 15 15 14 14 14
17 17 16 16 15 15 15 16 16 16 17 17 16 15 14 14 14 13 13 14 13 13 13 13 13 12 13 13 13 13 13 13 13 13 12 12 12 12 12 12 12 12 12
15 15 15 14 14 14 14 14 14 14 14 14 13 12 12 12 12 12 12 11 11 11 11 12 11 11 10 10 10 10 11 11 11 10 10 10 10 10 10 10 11 10 10
12 13 12 12 12 12 11 11 12 11 11 10 10 10 10 9 10 10 10 9 9 9 9 9 9 9 9 9 9 9 9 9 9 9 10 10 10 10 10 10 10 9 9
10 9 9 10 9 10 9 10 10 9 9 8 8 8 9 8 8 8 8 8 8 7 7 7 8 8 8 8 8 8 8 8 8 9 9 9 9 10 9 9 9 8 8
8 8 8 8 8 8 8 8 8 8 8 8 7 7 7 7 7 7 7 7 7 7 6 6 6 6 7 7 6 6 6 7 7 7 7 8 8 8 8 8 8 7 7
7 7 8 8 7 7 7 7 7 7 6 6 6 6 6 6 5 5 5 5 5 5 5 4 5 5 6 6 6 6 5 5 6 6 7 7 7 7 8 7 7 7 6
6 6 7 7 7 7 7 7 6 6 5 5 5 4 4 5 5 5 4 3 3 4 4 4 3 3 4 5 5 6 5 5 6 6 6 6 6 6 6 6 6 7 7
6 6 7 6 6 7 6 6 5 5 4 4 4 3 2 2 2 3 3 3 3 3 2 3 3 3 4 4 5 6 6 6 6 5 5 5 5 5 5 6 6 6 6
7 7 7 7 7 7 6 6 5 5 4 4 4 3 1 1 1 1 1 2 2 3 2 2 3 3 4 4 4 5 5 5 5 5 5 4 5 5 5 5 6 6 7
7 7 7 7 7 7 7 7 6 6 5 5 4 3 2 2 1 1 1 1 2 2 2 2 2 3 4 4 4 4 4 5 5 5 5 4 5 5 6 7 8 8 9
7 7 8 7 8 8 8 8 7 7 6 5 4 4 3 3 2 2 2 1 1 2 1 1 1 2 3 4 4 5 5 5 5 5 6 6 6 7 8 9 10 10 11
8 8 8 8 8 9 8 8 8 8 7 6 5 4 4 3 2 2 1 1 0 0 1 1 2 2 3 4 5 5 5 5 6 7 7 8 8 9 10 11 12 13 14
8 8 8 8 8 9 9 8 7 7 7 6 6 5 4 4 2 2 2 2 1 1 2 2 3 3 4 5 6 6 6 7 8 8 9 10 11 12 13 13 15 16 17
8 8 8 9 9 9 8 8 7 7 7 6 6 5 4 4 3 3 3 3 2 2 2 3 3 4 5 5 6 7 8 9 9 10 11 12 13 14 15 16 17 18 20
8 8 8 9 9 9 8 8 7 7 6 6 5 5 4 4 4 4 4 3 3 3 3 4 5 5 6 6 8 9 10 11 12 13 14 15 16 17 18 19 20 21 22
8 8 8 8 8 8 8 8 7 6 6 6 6 6 5 5 5 5 4 4 4 5 6 6 7 8 9 10 10 11 13 14 15 16 17 18 19 20 21 22 23 24 25
8 8 8 8 8 8 8 8 7 7 7 7 7 7 7 6 6 6 7 7 7 8 8 9 10 11 12 12 13 14 16 17 18 19 20 20 21 22 23 24 25 26 27
Wind_Direction
275 273 273 276 279 280 281 282 281 280 279 278 279 277 275 272 270 271 269 267 267 266 267 264 261 260 258 257 256 255 255 256 255 256 259 259 258 259 260 261 264 267 268
276 274 275 278 279 280 281 282 281 280 279 278 277 275 274 273 271 270 268 267 267 266 266 265 261 259 258 256 256 255 255 256 256 258 258 259 258 259 261 263 265 268 269
278 276 275 278 279 280 281 281 281 280 280 277 275 274 273 272 271 270 269 267 267 267 266 265 262 259 256 257 258 257 256 256 256 255 257 258 259 259 260 262 264 265 267
281 280 278 278 279 279 280 280 280 281 281 280 277 274 273 272 271 271 270 269 268 267 267 265 264 261 257 257 257 256 257 257 257 257 257 257 257 258 259 262 264 265 266
283 282 280 280 280 280 280 280 279 279 280 279 277 275 275 274 272 270 268 269 269 269 267 265 264 263 259 257 257 256 256 257 258 258 258 257 257 257 258 261 264 265 267
287 286 285 284 283 282 281 280 280 279 279 277 276 276 275 274 272 270 267 267 268 268 267 265 264 265 261 258 256 256 257 257 258 259 259 258 256 256 257 259 262 264 265
290 289 287 287 285 282 280 280 279 279 279 278 277 277 275 271 268 269 268 267 267 267 264 263 263 264 262 258 256 256 254 255 257 258 256 256 256 256 257 257 257 259 262
293 291 289 288 287 284 282 281 278 277 278 278 278 278 275 271 267 266 266 266 267 266 264 263 263 262 261 258 255 254 252 253 255 256 255 255 256 254 250 251 254 256 258
294 292 289 287 286 285 284 283 280 278 278 277 277 277 273 268 264 264 265 265 265 266 264 265 265 263 260 258 255 252 249 251 255 256 254 253 252 249 249 250 251 254 256
296 296 293 290 288 287 286 285 283 280 280 279 277 274 272 269 267 264 264 263 263 263 264 263 264 262 260 258 252 250 249 249 252 250 247 247 244 242 244 244 246 249 253
299 297 296 293 292 292 291 289 287 286 283 279 276 273 273 267 265 263 262 264 262 260 263 262 261 260 257 255 254 251 247 247 246 242 241 239 235 235 238 240 242 246 252
306 302 297 294 295 295 296 296 296 292 285 281 276 274 272 265 261 262 264 265 262 259 259 258 256 252 250 249 248 245 243 243 242 239 237 233 234 234 234 235 240 246 249
314 313 310 306 304 303 303 303 301 297 287 283 278 275 272 266 260 260 260 261 255 255 256 255 252 252 246 242 242 241 239 236 235 233 232 232 232 230 233 236 240 247 250
323 324 321 318 314 311 311 311 309 305 295 286 280 275 270 263 255 254 257 258 254 251 249 250 246 241 236 233 233 231 229 227 224 222 225 230 232 231 230 234 241 246 248
341 339 335 329 323 320 320 319 319 320 309 293 287 278 263 252 250 247 243 246 244 246 247 243 236 235 232 226 223 224 220 217 215 221 227 230 234 232 230 235 238 239 245
351 351 349 344 343 338 334 331 330 333 328 316 304 286 264 255 250 246 242 239 233 232 229 232 231 225 215 207 204 208 206 205 210 215 221 228 231 229 230 235 240 242 248
357 358 359 360 359 357 353 348 344 343 342 341 332 304 281 267 252 244 236 228 221 217 216 217 221 216 202 198 198 199 199 205 210 212 218 225 231 234 237 243 247 250 255
12 11 11 12 8 8 9 7 6 8 7 8 13 17 5 308 276 260 235 228 219 215 208 199 195 198 195 194 197 199 201 205 207 213 225 235 241 243 246 253 258 262 268
15 18 21 24 26 25 22 20 24 28 26 27 33 42 55 73 79 87 103 170 203 210 210 199 199 200 202 201 203 205 206 212 220 224 229 241 251 254 259 266 271 273 277
23 23 24 26 27 29 31 32 34 35 33 35 41 46 62 73 73 73 73 89 133 161 169 204 209 217 214 210 210 214 221 228 231 234 243 254 262 267 271 275 278 281 285
27 27 29 30 33 35 35 37 41 41 38 40 45 49 53 62 68 54 38 39 65 169 257 234 223 223 219 220 222 226 231 236 240 245 256 265 270 273 275 279 283 286 288
32 32 33 34 35 33 31 33 36 36 37 43 51 51 48 50 46 32 20 355 322 285 270 248 240 235 234 232 237 244 247 250 253 257 265 269 273 277 278 281 284 287 290
38 36 35 33 32 30 29 29 32 34 35 38 40 43 44 40 29 10 357 346 329 299 278 269 265 257 254 248 252 256 261 263 266 270 273 275 279 282 283 285 287 289 291
33 32 31 29 29 31 29 27 29 29 28 27 25 22 16 10 3 357 353 348 332 310 291 285 281 274 269 267 269 272 274 276 277 278 279 280 283 285 286 288 289 290 291
26 27 27 27 25 23 21 19 16 13 7 2 359 356 352 345 336 327 323 321 313 303 295 291 286 282 281 279 278 280 281 282 283 283 283 283 285 287 288 289 290 290 291
21 18 15 12 11 11 10 7 3 358 352 347 344 342 338 332 325 317 310 304 301 298 295 294 292 290 288 286 285 284 284 284 284 285 286 286 287 288 289 290 290 291 292
Height
5781 5781 5780 5779 5778 5777 5776 5774 5773 5771 5770 5769 5767 5767 5766 5765 5765 5764 5764 5764 5764 5764 5764 5764 5764 5765 5766 5767 5768 5769 5771 5772 5774 5775 5776 5777 5778 5779 5779 5780 5781 5781 5782
5775 5773 5773 5772 5771 5770 5768 5767 5765 5764 5763 5761 5760 5760 5759 5758 5758 5757 5757 5757 5757 5757 5757 5757 5758 5758 5759 5760 5761 5762 5763 5765 5767 5768 5769 5770 5771 5772 5773 5774 5775 5775 5776
5768 5766 5765 5764 5763 5762 5761 5759 5758 5757 5755 5754 5753 5752 5752 5752 5751 5751 5750 5751 5751 5751 5751 5751 5751 5751 5752 5753 5754 5755 5756 5758 5759 5761 5762 5763 5765 5766 5767 5768 5768 5769 5770
5761 5759 5758 5757 5756 5754 5753 5752 5751 5750 5748 5747 5746 5746 5745 5745 5744 5744 5744 5744 5744 5744 5745 5745 5745 5745 5746 5747 5748 5749 5750 5751 5753 5754 5755 5757 5758 5759 5761 5762 5763 5763 5764
5754 5752 5751 5749 5748 5747 5746 5745 5744 5743 5742 5741 5740 5739 5738 5738 5738 5738 5738 5738 5738 5738 5738 5739 5739 5739 5740 5741 5742 5743 5744 5745 5746 5747 5749 5750 5752 5753 5755 5756 5757 5758 5758
5748 5746 5744 5743 5741 5740 5739 5738 5737 5736 5735 5734 5734 5733 5732 5732 5732 5732 5732 5732 5732 5732 5732 5733 5733 5733 5734 5734 5735 5737 5738 5739 5741 5742 5743 5744 5746 5747 5749 5750 5751 5752 5753
5742 5739 5738 5736 5735 5733 5733 5732 5731 5730 5729 5728 5728 5727 5726 5726 5726 5726 5726 5727 5727 5727 5727 5727 5728 5728 5728 5728 5730 5731 5732 5734 5735 5736 5737 5739 5740 5742 5743 5744 5746 5747 5748
5736 5734 5732 5731 5729 5728 5727 5726 5725 5724 5723 5722 5722 5721 5720 5720 5720 5721 5721 5722 5722 5722 5723 5723 5723 5723 5723 5724 5725 5726 5728 5729 5730 5731 5733 5734 5735 5736 5738 5740 5741 5742 5743
5731 5729 5727 5725 5724 5722 5721 5720 5719 5718 5717 5717 5716 5716 5715 5715 5716 5716 5716 5717 5717 5718 5718 5718 5718 5719 5719 5719 5720 5721 5723 5725 5726 5727 5728 5729 5731 5732 5734 5735 5737 5738 5739
5726 5724 5722 5721 5719 5718 5716 5715 5714 5713 5712 5712 5711 5711 5711 5711 5711 5712 5713 5713 5714 5714 5714 5714 5715 5715 5715 5716 5717 5718 5720 5721 5722 5723 5725 5726 5727 5729 5730 5732 5734 5735 5736
5722 5720 5718 5717 5716 5714 5713 5711 5710 5709 5709 5708 5707 5707 5707 5708 5708 5709 5709 5710 5710 5711 5711 5711 5712 5712 5713 5713 5714 5716 5717 5718 5720 5721 5722 5723 5725 5726 5728 5729 5731 5732 5733
5718 5716 5715 5714 5712 5711 5710 5708 5707 5706 5706 5705 5705 5704 5704 5705 5706 5706 5707 5708 5708 5708 5709 5709 5709 5710 5711 5711 5712 5713 5715 5716 5717 5718 5720 5721 5723 5724 5726 5727 5728 5729 5730
5716 5714 5713 5712 5710 5709 5707 5706 5705 5704 5703 5703 5703 5702 5703 5703 5703 5704 5705 5705 5706 5706 5707 5707 5708 5708 5709 5710 5711 5712 5713 5714 5715 5717 5718 5720 5721 5722 5724 5725 5726 5727 5727
5714 5713 5711 5710 5709 5707 5706 5705 5704 5702 5702 5701 5701 5701 5701 5701 5702 5703 5703 5704 5704 5705 5705 5706 5706 5707 5708 5709 5710 5711 5712 5713 5714 5716 5717 5718 5719 5721 5722 5723 5724 5725 5725
5714 5712 5711 5709 5708 5706 5705 5704 5703 5701 5701 5700 5700 5699 5700 5700 5701 5701 5702 5703 5703 5704 5704 5705 5705 5706 5707 5708 5709 5710 5711 5713 5714 5715 5716 5718 5719 5720 5721 5722 5722 5723 5724
5713 5712 5710 5709 5707 5706 5705 5703 5702 5701 5700 5699 5699 5699 5699 5699 5700 5701 5701 5702 5702 5703 5704 5705 5705 5706 5707 5708 5709 5710 5711 5713 5714 5715 5716 5717 5718 5719 5720 5720 5721 5721 5722
5713 5712 5710 5709 5707 5706 5705 5703 5702 5701 5700 5700 5699 5699 5699 5699 5700 5701 5701 5702 5702 5703 5704 5704 5705 5706 5707 5708 5709 5710 5711 5713 5714 5715 5716 5717 5717 5718 5718 5719 5719 5719 5720
5714 5713 5711 5710 5708 5707 5705 5704 5703 5702 5701 5701 5700 5700 5700 5700 5701 5701 5701 5702 5703 5703 5704 5705 5705 5706 5707 5708 5709 5710 5711 5713 5714 5715 5715 5716 5717 5717 5717 5718 5718 5718 5718
5715 5714 5712 5711 5709 5708 5707 5705 5704 5703 5703 5702 5702 5701 5701 5701 5702 5702 5702 5703 5703 5704 5705 5705 5706 5707 5708 5709 5710 5711 5711 5712 5713 5714 5715 5715 5716 5716 5716 5716 5716 5716 5716
5716 5715 5714 5712 5711 5710 5708 5707 5706 5705 5704 5704 5703 5703 5703 5703 5703 5704 5704 5704 5704 5705 5705 5706 5706 5707 5708 5709 5710 5710 5711 5712 5713 5713 5714 5715 5715 5715 5715 5715 5714 5714 5713
5718 5717 5715 5714 5713 5711 5710 5709 5708 5707 5706 5705 5705 5705 5705 5705 5705 5705 5705 5705 5705 5706 5706 5707 5707 5707 5708 5709 5709 5710 5711 5711 5712 5712 5713 5713 5713 5713 5712 5712 5711 5710 5709
5720 5718 5717 5716 5715 5713 5712 5711 5710 5709 5708 5708 5707 5707 5707 5706 5706 5706 5706 5706 5706 5707 5707 5707 5707 5707 5708 5708 5709 5709 5710 5710 5710 5710 5710 5710 5710 5709 5709 5708 5707 5706 5705
5722 5720 5719 5718 5717 5716 5714 5713 5712 5711 5711 5710 5709 5709 5708 5708 5708 5708 5707 5707 5707 5707 5707 5707 5707 5707 5707 5708 5708 5708 5708 5708 5708 5708 5708 5707 5706 5706 5705 5704 5702 5701 5700
5723 5722 5721 5720 5718 5717 5716 5715 5714 5713 5713 5712 5711 5710 5710 5709 5709 5708 5708 5707 5707 5707 5707 5707 5707 5706 5706 5706 5706 5706 5706 5705 5705 5705 5704 5703 5702 5701 5700 5699 5697 5696 5694
5725 5723 5722 5721 5720 5719 5718 5717 5716 5715 5714 5713 5712 5711 5710 5710 5709 5709 5708 5708 5707 5707 5706 5706 5706 5705 5705 5704 5704 5703 5703 5702 5701 5700 5699 5698 5697 5696 5694 5693 5691 5689 5687
5726 5725 5723 5722 5721 5720 5718 5717 5716 5715 5714 5713 5712 5711 5710 5710 5709 5708 5707 5707 5706 5706 5705 5704 5704 5703 5702 5701 5701 5700 5699 5698 5696 5695 5694 5693 5691 5690 5688 5686 5684 5682 5680